Weather in Klevantsovo

Russia / Kostroma Oblast     57°49′18″N   42°26′53″E
temp.,
°C
wind,
m/s
gust,
m/s
humid.,
%
clouds,
%
prec.,
mm/h
press.,
hPa
HPBL,
m
21 april, wed
wed2100:00+3e51462100 0.0 1020552
03:00+3e61561100 0.1 1017699
06:00+1ese71990100 2.2 10121104
09:00+2ese81796100 5.8 10111029
12:00+4se81788100 0.0 10091022
15:00+6se81685100 0.0 1008964
18:00+5sse71591100 0.3 10081098
21:00+4sw3696100 1.4 1010692
22 april, thu
thu2200:00+3ssw3891100 0.1 1011466
03:00+3ssw3993100 0.1 1013417
06:00+3s4994100 0.0 1014448
09:00+4s4797100 0.0 1016624
12:00+5s478999 0.1 1017745
15:00+7s4879100 0.1 10171078
18:00+8ssw4979100 0.0 1017794
21:00+6s3986100 0.0 1019241
23 april, fri
fri2300:00+6sse3988100 0.0 1018242
03:00+6se31090100 0.0 1018237
06:00+6sse41288100 0.0 1018419
09:00+9sse4118088 0.1 1018509
12:00+14s586332 0.1 1018994
15:00+16s595480 1.3 10171869
18:00+13sse4106611 0.3 1017640
21:00+8se4138226 0.4 1018334
24 april, sat
sat2400:00+7se412855 0.0 1016295
03:00+6se411895 0.0 1015254
06:00+6se4138820 0.0 1014351
09:00+11se6127585 0.1 1012682
12:00+14se7116116 0.4 10101536
15:00+14se6105326 0.9 10071867
18:00+12ese6115735 0.1 10051423
21:00+10ese61372100 0.1 10041203
25 april, sun
sun2500:00+6wsw3594100 7.0 1002345
03:00+3wsw4997100 10.8 1003861
06:00+3wsw5108759 0.3 10051137
09:00+6wsw577033 0.6 10051166
12:00+8sw5853100 0.9 10052099
15:00+8sw685651 1.9 10061890
18:00+6wsw59655 0.6 10071410
21:00+2sw38825 0.6 1008303